Location: La Oliva
(42.2466°N, 2.9955°E)
Time: 11:29:39
(UTC+00:00)

SAR-Lupe-4 - Pass Details

Date: 22 April 2021
Orbit: 483 x 483 km, 98.2° (Epoch: 13 April)

Event Time Altitude Azimuth Distance (km) Brightness Sun altitude
Rises 19:14:08 0° 10° (N) 2,558 7.4 -7.2°
Reaches altitude 10° 19:16:13 10° 8° (N) 1,673 6.5 -7.5°
Maximum altitude 19:19:47 67° 286° (WNW) 527 4.0 -8.1°
Drops below altitude 10° 19:23:19 10° 203° (SSW) 1,659 6.2 -8.7°
Sets 19:25:23 0° 200° (SSW) 2,534 7.2 -9.0°
